Kuiper-00118

operational
NORAD ID: 65154 Int'l Des: 2025-171 Owner: KUIP Country: US Constellation: kuiper
LEOCIRCULAR

Kuiper-00118について

説明を読み込み中...

リアルタイム位置

3D地球を読み込み中...

次回通過

高度履歴

Altitude vs Time

uPlot chart will show altitude changes over time

軌道要素

1 65154U 25171Y 25303.62979674 -.00002549 00000-0 -30541-3 0 9998
2 65154 51.9010 30.7057 0001872 73.6127 286.5041 14.79929947 13387
Epoch: Oct 30, 2025 • Age: 20 hours

現在のステータス

高度 629.6 km
速度 7.55 km/s
衛星直下点 19.41°N, 17.89°W
打ち上げ日 Aug 11, 2025
運用期間 0.2 years
タイプ internet

技術仕様

分類 Payload
質量 490.00 kg
乾燥質量 490.00 kg
総質量 490.00 kg
長さ 1.80 m
直径 0.70 m
スパン 5.00 m
形状 Box + 2 pan
製造者 KUIP
バスタイプ Kuiper
フェーズステータス In Orbit
所有者/国 KUIP/US

大規模コンステレーション

Loading constellations...